Location: Le Gr�zie
(43.6000°N, 13.5000°E)
Time: 13:17:25
(UTC+00:00)

IGS 5A - Pass Details

Date: 09 April 2020
Orbit: 585 x 587 km, 97.6° (Epoch: 19 May)

Event Time Altitude Azimuth Distance (km) Brightness Sun altitude
Exits shadow 20:20:36 53° 357° (N) 725 4.0 -26.1°
Drops below altitude 10° 20:23:50 10° 349° (N) 1,919 6.7 -26.5°
Sets 20:26:00 0° 349° (N) 2,823 7.8 -26.8°
